Погода в Томске

Хотите узнать прогноз погоды в Томске? Тогда Вам сюда: Погода в Томске

Поиск расширенной информации на нашем сайте:

Полезная информация:

Новости сайта



02.01.2020
Опубликован Долгосрочный прогноз погоды по городам России и ближнего зарубежья на январь 2020 года.
Карты: Прогноз на январь и февраль 2020 года, Сравнение прогнозируемой аномалии приземной температуры воздуха на январь 2020 года по разным моделям.




Погода в Томске - сегодня

Время (UTC), дата Ветер
(°,м/с) 
Видим.   Явления Облачность Т
(°С)
Тd
(°С)
f(%) Тe
(°С)
Pmin
(гПа)
dP
(гПа)
Po
(мм)
O2
(г/м3)
Тmin Tmax R s Состояние
почвы
03 16.01.20 тихо ()   20000 м  слаб. снег  10/5 300 м средняя 
[Frnb|As op]
-6.3 -7.2 93 -6  1017.4  0.4  750  310           
06 16.01.20 180 (Ю) 20000 м  слаб. ливневой снег  10/5 600 м кучево-дожд., верхняя 
[Cb cap|Ci fib]
-4.9 -6.9 86 -4  1017.8  0.4  750  308           
09 16.01.20 190 (Ю) 20000 м  {ливн. осадки}  8/0 средняя, верхняя 
[Ac cast|Cc]
-6.4 -9.4 79 -6  1018.3  0.4  750  310           
12 16.01.20 180 (Ю) 20000 м  {ливн. осадки}  10/8 360 м средняя 
[Sc|Ac und]
-7.7 -9.5 87 -7  1019.2  0.8  751  312    -4.3  0.8     
15 16.01.20 тихо ()   20000 м  слаб. снег  10/8 330 м средняя 
[Frnb|As op]
-7.5 -8.6 92 -8  1018.7  -0.4  751  312           
18 16.01.20 190 (Ю) 20000 м  {снег}  10/10 400 м 
[Sc]
-6.6 -8.8 84 -6  1017.5  -1.2  750  310           
21 16.01.20 200 (Ю) 20000 м    6/6 600 м 
[Sc]
-8.5 -12.6 72 -11  1017  -0.5  749  313           
00 17.01.20 150 (ЮВ) 20000 м  позёмок  10/3 600 м средняя 
[Sc|Ac und]
-9.6 -12.9 77 -11  1013.9  -3.2  747  313  -9.7    0.4  66  равномерный
сухой снег
100% 
03 17.01.20 150 (ЮВ) 2{11}  10 км  слаб. снег  10/4 700 м средняя 
[Sc diur, vesp|As op]
-9 -10.9 86 -11  1009.5  -4.2  744  311           
06 17.01.20 160 (Ю) 4000 м  слаб. снег  10/6 300 м средняя 
[Sc diur, vesp|As op]
-8.1 -9.3 91 -8  1006.9  -2.5  742  309           
09 17.01.20 170 (Ю) 2000 м  снег  10/10 240 м 
[Frnb|Ns]
-7.9 -8.9 93 -8  1004  -2.9  740  308           
12 17.01.20 160 (Ю) 1000 м  сильн. снег  10/10 210 м 
[Frnb|Ns]
-7.4 -8.3 93 -7  1002.6  -1.3  739  307    -7.4     
15 17.01.20 190 (Ю) 4000 м  слаб. снег  10/10 210 м 
[Frnb|Ns]
-5.5 -6.2 95 -5  1001.8  -0.7  738  304           
18 17.01.20 190 (Ю) 4000 м  слаб. снег  10/10 210 м 
[Frnb|Ns]
-4.3 -4.9 96 -4  1001.2  -0.5  738  303           
21 17.01.20 200 (Ю) 2000 м  снег  10/10 210 м 
[Frnb|Ns]
-3.6 -4.2 96 -5  1001  -0.2  738  302           
00 18.01.20 220 (ЮЗ) 10 км  слаб. снег  10/10 270 м 
[Frnb|Ns]
-3.3 -3.8 96 -4  1002.7  1.8  739  302  -7.3    80  равномерный
сухой снег
100% 
03 18.01.20 290 (З) 3{13}  20000 м  позёмок{ливн. осадки, снег}  8/8 540 м 
[Sc]
-11 -13.5 82 -14  1012.6  9.1  746  314  -11         
06 18.01.20 280 (З) 2{10}  20000 м  {ливн. осадки, снег}  1/1 600 м 
[Sc]
-12.6 -16.7 71 -15  1019.9  7.1  751  319           
09 18.01.20 220 (ЮЗ) 20000 м    ясно 
-13.6 -18.8 65 -14  1024.4  4.3  754  321           
12 18.01.20 тихо ()   20000 м    ясно 
-17.3 -21 73 -17  1027.4  2.7  756  327    -3.2     
15 18.01.20 тихо ()   20000 м    ясно 
-18.2 -20.9 79 -18  1027.5  756  328           
18 18.01.20 130 (ЮВ) 20000 м    10/0 верхняя 
[Ci fib]
-17.8 -21.3 74 -18  1024.8  -2.5  755  327           
21 18.01.20 160 (Ю) 20000 м    10/0 верхняя 
[Ci fib]
-17.5 -20.7 76 -18  1019.7  -5.1  751  325           
00 19.01.20 180 (Ю) 20000 м  слаб. снег  10/10 500 м 
[Sc]
-16.8 -19.3 81 -17  1013.8  -5.7  746  322  -19.1    0.0  78  равномерный
сухой снег
100% 
03 19.01.20 150 (ЮВ) 2000 м  снег  10/8 270 м средняя 
[Frnb|As op]
-11.6 -13.2 88 -11  1007.8  -5.6  742  314           
Время (UTC), дата Ветер
(°,м/с) 
Видим.   Явления Облачность Т
(°С)
Тd
(°С)
f(%) Тe
(°С)
Pmin
(гПа)
dP
(гПа)
Po
(мм)
O2
(г/м3)
Тmin Tmax R s Состояние
почвы

Для получения пояснительной информации подведите курсор к названию столбца.

ПОГОДА в Томске - архив

Всё, что Вы хотите узнать о погоде в Томске - удобно и подробно!

Выберите нужную дату (начиная с 1 января 2019* года) и нажмите кнопку "Найти".
Будут отображены архивные сводки погоды по пункту Томск, начиная с указанной даты.


Отображать данные в формате CSV (для использования в таблицах Excel)


Внимание! Наш архив погоды предназначен исключительно для личного некоммерческого использования в познавательных целях. Если Вам необходимы официальные справки о состоянии погоды (для производственных, юридических, коммерческих и т.п. целей), обращайтесь в органы Росгидромета.

*Примечание: данная дата относится к архиву по метеостанциям СССР (Россия, СНГ, Балтия).
Архив по метеостанциям Зарубежной Европы и Азии (кроме Китая) хранится 10 дней, по другим регионам земного шара (Китай, Африка, Америка, Австралия, Океания) - 1 день.

Томск - район местоположения метеостанции


Название, широта, долгота, высота метеостанции:
Томск 56.5°ш. 84.9°д. 139 м над ур. моря [Российская Федерация]

Дополнительная информация

В oтличие oт бoльшинства пoгoдных сайтoв мы публикуем пoдрoбную метеoинфoрмацию в детальнoм прoфессиoнальнoм фoрмате.

Характеристики температуры и влажнoсти вoздуха измеряются на высoте 2 м в тени вдали oт зданий и деревьев.
Скoрoсть ветра измеряется на высoте 10 м (на урoвне рoста челoвека скoрoсть ветра ниже в 1.5-2 раза). Если метеoстанция нахoдится в гoрoде или в лесу, тo скoрoсть ветра занижена на 2-4 м/с пo сравнению с oткрытым местoм. Скoрoсть ветра над акватoриями крупных рек и oзёр, а также на вершинах хoлмoв на 2-5 м/с выше, чем в oбычных услoвиях.
Атмoсфернoе давление в разных тoчках местнoсти мoжет значительнo oтличаться oт давления на метеoстанции, в зависимoсти oт услoвий рельефа (при пoдъёме на 10 м давление пoнижается примернo на 1 мм рт.ст.).